Overview Statistics Trail Chart Weather Telemetry Raw packets
 

This is the latest recevied weather packets stored in our database for station/object VK4TOM-13. If no packets are shown the sender has not sent any weather packets the latest 10 day(s).

<< 3 4 5 6 7 8 9 >>
Time Temp. Humidity Pressure Rain* Wind** Luminosity Snow
1788579375 34.44° C 40% 1017.1 hPa 0 mm - - -
1788579172 34.44° C 47% 1017.1 hPa 0 mm - - -
1788567752 27.22° C 70% 1021.2 hPa 0 mm - - -
1788565348 25° C 70% 1022 hPa 0 mm - - -
1788562943 22.78° C 70% 1022.4 hPa 0 mm - - -
1788561741 21.11° C 70% 1022.6 hPa 0 mm - - -
1788561140 20.56° C 70% 1022.6 hPa 0 mm - - -
1788560539 20° C 70% 1022.8 hPa 0 mm - - -
1788559938 19.44° C 70% 1022.9 hPa 0 mm - - -
1788559337 18.33° C 70% 1022.7 hPa 0 mm - - -
1788558736 18.33° C 70% 1022.7 hPa 0 mm - - -
1788558135 17.78° C 70% 1022.7 hPa 0 mm - - -
1788557534 17.78° C 70% 1022.5 hPa 0 mm - - -
1788556933 17.78° C 70% 1022.5 hPa 0 mm - - -
1788556332 17.22° C 70% 1022.4 hPa 0 mm - - -
1788555731 17.22° C 70% 1022.3 hPa 0 mm - - -
1788555130 16.67° C 70% 1022.2 hPa 0 mm - - -
1788554529 16.67° C 70% 1022 hPa 0 mm - - -
1788553928 16.67° C 70% 1022.1 hPa 0 mm - - -
1788553326 16.11° C 70% 1022 hPa 0 mm - - -
1788552725 16.11° C 70% 1021.9 hPa 0 mm - - -
1788552124 16.11° C 70% 1021.7 hPa 0 mm - - -
1788551523 16.11° C 70% 1021.7 hPa 0 mm - - -
1788550922 16.11° C 70% 1021.7 hPa 0 mm - - -
1788550321 16.11° C 70% 1021.6 hPa 0 mm - - -

* Rain since midnight (hover to see other rain measurements)
** Current wind speed in m/s (hover to see current wind gust speed)